CW3518 Weather Reports


Display with metric or nautical units.
time (UTC)temp
F
wind
direction
speed
MPH
gust
MPH
rain 1hr
in
rain 24hr
in
rain mn
in
humidity
%
barometer
mb
20260906041954 86 180 4.0 5.0 0.00 0.00 0.00 62 1013.2
20260906041455 86 184 3.0 6.0 0.00 0.00 0.00 62 1013.2
20260906040955 86 184 5.0 8.0 0.00 0.00 0.00 61 1013.2
20260906040454 86 173 5.0 8.0 0.00 0.00 0.00 61 1013.2
20260906040025 86 158 6.0 10.0 0.00 0.00 0.00 61 1013.2
20260906035525 87 171 8.0 10.0 0.00 0.00 0.00 60 1013.2
20260906035024 87 163 8.0 11.0 0.00 0.00 0.00 60 1013.2
20260906034455 87 170 10.0 11.0 0.00 0.00 0.00 59 1013.2
20260906034024 87 172 9.0 11.0 0.00 0.00 0.00 59 1013.2
20260906033524 87 168 11.0 11.0 0.00 0.00 0.00 59 1013.2
20260906033024 87 169 8.0 11.0 0.00 0.00 0.00 58 1013.2
20260906032454 87 158 9.0 12.0 0.00 0.00 0.00 58 1013.2
20260906032024 88 151 10.0 14.0 0.00 0.00 0.00 57 1013.2
20260906031525 88 153 10.0 14.0 0.00 0.00 0.00 57 1013.1
20260906030454 88 147 10.0 14.0 0.00 0.00 0.00 56 1013.0
20260906025524 89 150 10.0 13.0 0.00 0.00 0.00 54 1012.9
20260906024954 88 168 10.0 11.0 0.00 0.00 0.00 53 1012.9
20260906024454 89 155 8.0 11.0 0.00 0.00 0.00 51 1012.9
20260906023454 89 149 9.0 15.0 0.00 0.00 0.00 48 1012.7
20260906023024 90 152 5.0 7.0 0.00 0.00 0.00 46 1012.5
20260906022454 90 125 6.0 7.0 0.00 0.00 0.00 45 1012.4
20260906022024 91 128 7.0 8.0 0.00 0.00 0.00 45 1012.3
20260906021523 91 124 7.0 8.0 0.00 0.00 0.00 44 1012.2
20260906021023 91 124 5.0 7.0 0.00 0.00 0.00 44 1012.2
20260906020023 91 117 5.0 6.0 0.00 0.00 0.00 44 1012.1
20260906015523 91 125 5.0 6.0 0.00 0.00 0.00 44 1012.0
20260906015023 91 138 4.0 7.0 0.00 0.00 0.00 44 1012.0
20260906014523 92 121 6.0 7.0 0.00 0.00 0.00 43 1011.9
20260906014023 92 117 5.0 6.0 0.00 0.00 0.00 43 1011.9
20260906013523 92 114 6.0 6.0 0.00 0.00 0.00 43 1011.8
20260906013023 92 113 5.0 6.0 0.00 0.00 0.00 43 1011.8
20260906012523 92 113 5.0 6.0 0.00 0.00 0.00 43 1011.8
20260906011953 92 111 5.0 6.0 0.00 0.00 0.00 43 1011.7
20260906011452 92 112 5.0 6.0 0.00 0.00 0.00 43 1011.7
20260906011025 93 108 5.0 7.0 0.00 0.00 0.00 42 1011.7
20260906010454 93 111 5.0 7.0 0.00 0.00 0.00 42 1011.5
20260906005955 93 115 6.0 7.0 0.00 0.00 0.00 42 1011.5
20260906005454 93 115 5.0 5.0 0.00 0.00 0.00 42 1011.5
20260906004953 93 115 5.0 7.0 0.00 0.00 0.00 42 1011.5
20260906004454 93 122 6.0 9.0 0.00 0.00 0.00 41 1011.5
20260906003953 94 111 5.0 9.0 0.00 0.00 0.00 41 1011.5
20260906003524 94 124 4.0 8.0 0.00 0.00 0.00 40 1011.5
20260906002523 95 108 4.0 7.0 0.00 0.00 0.00 40 1011.4
20260906002022 95 128 4.0 9.0 0.00 0.00 0.00 39 1011.5
20260906001523 95 123 6.0 9.0 0.00 0.00 0.00 38 1011.4
20260906001022 95 123 7.0 11.0 0.00 0.00 0.00 38 1011.3
20260906000523 96 124 8.0 11.0 0.00 0.00 0.00 38 1011.3
20260905235522 96 120 7.0 11.0 0.00 0.00 0.00 38 1011.2
20260905235024 96 122 9.0 11.0 0.00 0.00 0.00 36 1011.2
20260905234452 96 126 8.0 9.0 0.00 0.00 0.00 36 1011.3
20260905233952 97 142 8.0 11.0 0.00 0.00 0.00 36 1011.2
20260905233452 97 151 5.0 11.0 0.00 0.00 0.00 35 1011.2
20260905232954 97 102 8.0 11.0 0.00 0.00 0.00 37 1011.1
20260905232523 96 116 5.0 12.0 0.00 0.00 0.00 37 1011.1
20260905231951 96 83 12.0 14.0 0.00 0.00 0.00 37 1011.2
20260905231452 96 103 14.0 14.0 0.00 0.00 0.00 36 1011.2
20260905230954 97 105 10.0 11.0 0.00 0.00 0.00 36 1011.2
20260905230451 97 99 7.0 13.0 0.00 0.00 0.00 35 1011.1
20260905225951 97 95 11.0 18.0 0.00 0.00 0.00 35 1011.2
20260905225451 97 112 9.0 18.0 0.00 0.00 0.00 35 1011.1
20260905225021 98 260 1.0 15.0 0.00 0.00 0.00 35 1011.1
20260905224521 97 176 4.0 15.0 0.00 0.00 0.00 35 1011.1
20260905223451 97 109 8.0 14.0 0.00 0.00 0.00 36 1011.2
20260905223021 97 135 8.0 14.0 0.00 0.00 0.00 35 1011.2
20260905222521 97 100 9.0 10.0 0.00 0.00 0.00 36 1011.2
20260905220951 97 193 3.0 10.0 0.00 0.00 0.00 37 1011.3
20260905220020 97 102 11.0 14.0 0.00 0.00 0.00 36 1011.3
20260905215520 96 198 2.0 14.0 0.00 0.00 0.00 37 1011.4
20260905215020 96 110 5.0 15.0 0.00 0.00 0.00 37 1011.4
20260905214520 98 148 11.0 15.0 0.00 0.00 0.00 37 1011.4
20260905213520 97 182 5.0 14.0 0.00 0.00 0.00 37 1011.5
20260905213020 96 115 8.0 14.0 0.00 0.00 0.00 38 1011.5
20260905211520 98 152 2.0 13.0 0.00 0.00 0.00 37 1011.7
20260905211019 96 312 5.0 13.0 0.00 0.00 0.00 38 1011.7
20260905210450 96 119 9.0 9.0 0.00 0.00 0.00 38 1011.8
20260905205519 96 137 7.0 12.0 0.00 0.00 0.00 39 1012.0
20260905205019 95 140 11.0 12.0 0.00 0.00 0.00 40 1012.1
20260905204519 95 112 8.0 14.0 0.00 0.00 0.00 40 1012.1
20260905204019 95 105 8.0 14.0 0.00 0.00 0.00 40 1012.2
20260905203519 96 136 7.0 10.0 0.00 0.00 0.00 38 1012.3
20260905202519 96 199 10.0 13.0 0.00 0.00 0.00 38 1012.4
20260905202020 97 165 11.0 12.0 0.00 0.00 0.00 38 1012.5
20260905201519 96 91 5.0 13.0 0.00 0.00 0.00 39 1012.6
20260905201019 95 135 4.0 13.0 0.00 0.00 0.00 40 1012.7
20260905200519 95 170 7.0 13.0 0.00 0.00 0.00 40 1012.7
20260905200019 97 120 7.0 17.0 0.00 0.00 0.00 38 1012.8
20260905195519 96 145 3.0 17.0 0.00 0.00 0.00 39 1012.8
20260905195020 96 113 13.0 15.0 0.00 0.00 0.00 39 1012.8
20260905194518 97 110 8.0 15.0 0.00 0.00 0.00 39 1012.9
20260905193948 96 126 5.0 11.0 0.00 0.00 0.00 40 1013.1
20260905193519 95 160 5.0 11.0 0.00 0.00 0.00 41 1013.1
20260905193019 94 117 8.0 11.0 0.00 0.00 0.00 41 1013.2
20260905192518 95 132 6.0 12.0 0.00 0.00 0.00 41 1013.3
20260905192018 95 103 1.0 17.0 0.00 0.00 0.00 41 1013.3
20260905191449 95 133 12.0 17.0 0.00 0.00 0.00 41 1013.4
20260905191018 96 126 6.0 11.0 0.00 0.00 0.00 41 1013.5
20260905190448 95 225 11.0 11.0 0.00 0.00 0.00 42 1013.6
20260905190018 93 92 10.0 11.0 0.00 0.00 0.00 43 1013.6
20260905185518 94 139 2.0 15.0 0.00 0.00 0.00 42 1013.7
20260905185018 94 118 3.0 15.0 0.00 0.00 0.00 42 1013.9
20260905184518 95 110 9.0 13.0 0.00 0.00 0.00 42 1013.9
20260905184018 94 111 13.0 13.0 0.00 0.00 0.00 43 1014.0
20260905183518 93 90 7.0 11.0 0.00 0.00 0.00 44 1014.1
20260905183018 94 118 5.0 11.0 0.00 0.00 0.00 42 1014.2
20260905182518 95 125 9.0 14.0 0.00 0.00 0.00 41 1014.1
20260905182018 95 154 3.0 14.0 0.00 0.00 0.00 41 1014.2
20260905181518 95 114 9.0 16.0 0.00 0.00 0.00 40 1014.2
20260905181018 94 206 6.0 16.0 0.00 0.00 0.00 41 1014.3
20260905180517 94 129 4.0 16.0 0.00 0.00 0.00 41 1014.4
20260905175517 94 114 3.0 12.0 0.00 0.00 0.00 42 1014.5
20260905175017 94 121 5.0 11.0 0.00 0.00 0.00 41 1014.6
20260905174518 93 117 8.0 14.0 0.00 0.00 0.00 42 1014.7
20260905174018 93 242 2.0 14.0 0.00 0.00 0.00 44 1014.8
20260905173517 94 144 10.0 13.0 0.00 0.00 0.00 42 1014.7
20260905172518 92 122 12.0 13.0 0.00 0.00 0.00 45 1014.9
20260905172017 93 182 7.0 9.0 0.00 0.00 0.00 45 1014.9
20260905171517 92 188 4.0 10.0 0.00 0.00 0.00 46 1015.1
20260905171017 93 294 2.0 10.0 0.00 0.00 0.00 45 1015.0
20260905170517 92 79 6.0 9.0 0.00 0.00 0.00 46 1015.1
20260905170017 93 160 7.0 10.0 0.00 0.00 0.00 45 1015.0
20260905165517 91 222 6.0 13.0 0.00 0.00 0.00 47 1015.1
20260905165017 92 188 7.0 13.0 0.00 0.00 0.00 46 1015.1
20260905164017 92 124 3.0 13.0 0.00 0.00 0.00 46 1015.1
20260905163517 92 156 9.0 13.0 0.00 0.00 0.00 47 1015.0
20260905163017 91 330 4.0 9.0 0.00 0.00 0.00 48 1015.1
20260905162517 92 86 9.0 9.0 0.00 0.00 0.00 47 1015.1
20260905162017 92 89 3.0 7.0 0.00 0.00 0.00 49 1015.1
20260905161516 92 238 2.0 7.0 0.00 0.00 0.00 49 1015.2
20260905160017 89 311 3.0 9.0 0.00 0.00 0.00 54 1015.2
20260905155016 89 203 3.0 8.0 0.00 0.00 0.00 54 1015.3
20260905154516 89 153 5.0 9.0 0.00 0.00 0.00 55 1015.3
20260905154016 89 349 1.0 9.0 0.00 0.00 0.00 57 1015.3
20260905153516 89 263 2.0 7.0 0.00 0.00 0.00 57 1015.3
20260905153016 88 270 1.0 10.0 0.00 0.00 0.00 59 1015.3
20260905152516 87 237 7.0 10.0 0.00 0.00 0.00 59 1015.3
20260905152016 87 250 7.0 10.0 0.00 0.00 0.00 59 1015.3
20260905151016 87 221 7.0 9.0 0.00 0.00 0.00 61 1015.2
20260905150516 87 238 4.0 8.0 0.00 0.00 0.00 62 1015.2
20260905145516 86 266 4.0 9.0 0.00 0.01 0.00 64 1015.2
20260905145018 86 250 7.0 11.0 0.00 0.01 0.00 64 1015.2
20260905144515 86 228 4.0 12.0 0.00 0.02 0.00 65 1015.2
20260905144015 85 235 7.0 12.0 0.00 0.03 0.00 66 1015.1
20260905143016 85 248 9.0 11.0 0.00 0.03 0.00 67 1015.1
20260905142515 84 299 6.0 7.0 0.00 0.03 0.00 68 1015.1
20260905142015 84 243 7.0 10.0 0.00 0.03 0.00 69 1015.1
20260905141515 83 241 5.0 10.0 0.00 0.03 0.00 71 1015.1
20260905140515 83 195 6.0 8.0 0.00 0.03 0.00 72 1015.0
20260905140015 82 237 6.0 10.0 0.00 0.03 0.00 73 1015.0
20260905135515 82 229 5.0 10.0 0.00 0.03 0.00 75 1015.0
20260905135015 82 221 9.0 10.0 0.00 0.03 0.00 75 1015.0
20260905134515 81 219 7.0 7.0 0.00 0.03 0.00 76 1015.0
20260905134015 81 205 5.0 6.0 0.00 0.03 0.00 77 1015.0
20260905133515 81 196 4.0 6.0 0.00 0.03 0.00 77 1015.0
20260905132014 79 217 6.0 6.0 0.00 0.03 0.00 80 1014.9
20260905131514 79 202 4.0 4.0 0.00 0.03 0.00 80 1014.9
20260905131014 79 172 2.0 5.0 0.00 0.03 0.00 81 1014.9
20260905130514 78 135 3.0 5.0 0.00 0.03 0.00 82 1014.9
20260905130014 78 102 3.0 4.0 0.00 0.03 0.00 83 1014.8
20260905125514 77 68 3.0 4.0 0.00 0.03 0.00 83 1014.8
20260905125014 77 42 3.0 3.0 0.00 0.03 0.00 84 1014.8
20260905124514 77 7 3.0 3.0 0.00 0.03 0.00 84 1014.7
20260905123514 77 322 3.0 4.0 0.00 0.03 0.00 85 1014.6
20260905123014 76 262 4.0 4.0 0.00 0.03 0.00 86 1014.5
20260905122514 76 259 4.0 4.0 0.00 0.03 0.00 86 1014.4
20260905122014 77 259 3.0 5.0 0.00 0.03 0.00 85 1014.5
20260905121514 77 245 4.0 5.0 0.00 0.03 0.00 85 1014.4
20260905121014 77 233 5.0 5.0 0.00 0.03 0.00 85 1014.4
20260905120514 76 229 5.0 5.0 0.00 0.03 0.00 86 1014.4
20260905120014 76 241 4.0 5.0 0.00 0.03 0.00 85 1014.4
20260905115514 76 228 4.0 5.0 0.00 0.03 0.00 85 1014.3
20260905115014 76 228 5.0 6.0 0.00 0.03 0.00 85 1014.1
20260905114513 76 233 5.0 6.0 0.00 0.03 0.00 84 1014.1
20260905114013 77 228 5.0 6.0 0.00 0.03 0.00 84 1014.0
20260905113513 77 221 5.0 6.0 0.00 0.03 0.00 84 1014.0
20260905113013 77 225 6.0 6.0 0.00 0.03 0.00 84 1014.0
20260905112513 77 227 5.0 6.0 0.00 0.03 0.00 83 1014.0
20260905112013 77 206 5.0 6.0 0.00 0.03 0.00 83 1014.0
20260905111513 77 212 5.0 5.0 0.00 0.03 0.00 83 1014.1
20260905111013 77 216 4.0 5.0 0.00 0.03 0.00 83 1014.1
20260905110513 77 225 4.0 4.0 0.00 0.03 0.00 83 1014.2
20260905110013 78 235 4.0 4.0 0.00 0.03 0.00 82 1014.3
20260905105513 78 243 4.0 5.0 0.00 0.03 0.00 82 1014.2
20260905105013 78 241 3.0 5.0 0.00 0.03 0.00 81 1014.2
20260905104012 78 176 5.0 8.0 0.00 0.03 0.00 81 1014.0
20260905103512 78 172 6.0 8.0 0.00 0.03 0.00 81 1013.9
20260905103013 78 163 6.0 7.0 0.00 0.03 0.00 81 1013.9
20260905102512 78 167 5.0 7.0 0.00 0.03 0.00 81 1014.0
20260905102013 78 155 5.0 7.0 0.00 0.03 0.00 81 1014.0
20260905101512 78 148 6.0 7.0 0.00 0.03 0.00 81 1013.9
20260905101012 78 144 6.0 7.0 0.00 0.03 0.00 80 1013.9
20260905100512 78 147 6.0 6.0 0.00 0.03 0.00 80 1014.0
20260905100012 79 156 5.0 5.0 0.00 0.03 0.00 79 1014.0
20260905095512 79 165 4.0 6.0 0.00 0.03 0.00 79 1014.0
20260905095012 79 191 5.0 6.0 0.00 0.03 0.00 78 1014.0
20260905094512 79 163 5.0 6.0 0.00 0.03 0.00 78 1014.1
20260905094012 79 191 4.0 6.0 0.00 0.03 0.00 78 1014.1
20260905093512 79 204 3.0 5.0 0.00 0.03 0.00 78 1014.1
20260905093012 79 202 3.0 5.0 0.00 0.03 0.00 77 1014.1
20260905092012 80 205 4.0 7.0 0.00 0.03 0.00 77 1014.0
20260905091512 80 212 6.0 7.0 0.00 0.03 0.00 76 1014.0
20260905091011 80 210 6.0 7.0 0.00 0.03 0.00 76 1013.9
20260905090511 80 210 7.0 7.0 0.00 0.03 0.00 76 1013.9
20260905090012 79 220 6.0 7.0 0.00 0.03 0.00 76 1013.8
20260905085511 79 228 6.0 7.0 0.00 0.03 0.00 76 1013.7
20260905085012 80 231 6.0 7.0 0.00 0.03 0.00 76 1013.6
20260905084511 80 230 6.0 7.0 0.00 0.03 0.00 76 1013.6
20260905084012 80 231 7.0 7.0 0.00 0.03 0.00 75 1013.6
20260905083511 80 233 7.0 8.0 0.00 0.03 0.00 75 1013.6
20260905082511 80 223 6.0 8.0 0.00 0.03 0.00 74 1013.7
20260905082011 80 225 7.0 8.0 0.00 0.03 0.00 74 1013.6
20260905081511 80 224 7.0 8.0 0.00 0.03 0.00 73 1013.6
20260905081011 81 226 7.0 7.0 0.00 0.03 0.00 73 1013.6
20260905080511 81 230 5.0 7.0 0.00 0.03 0.00 73 1013.6
20260905075510 81 221 6.0 7.0 0.00 0.03 0.00 72 1013.7
20260905074011 81 237 5.0 7.0 0.00 0.03 0.00 70 1013.9
20260905073511 82 231 6.0 7.0 0.00 0.03 0.00 69 1013.9
20260905073010 82 223 7.0 9.0 0.00 0.03 0.00 68 1013.9
20260905072510 82 224 6.0 9.0 0.00 0.03 0.00 68 1013.9
20260905071511 83 214 7.0 9.0 0.00 0.03 0.00 66 1013.9
20260905070510 83 199 6.0 7.0 0.00 0.03 0.00 65 1013.9
20260905070010 84 203 6.0 7.0 0.00 0.03 0.00 65 1014.0
20260905065510 84 197 4.0 7.0 0.00 0.03 0.00 64 1014.0
20260905065010 84 185 5.0 7.0 0.00 0.03 0.00 64 1014.0
20260905064510 84 200 6.0 6.0 0.00 0.03 0.00 63 1014.0
20260905064010 84 185 4.0 6.0 0.00 0.03 0.00 63 1014.0
20260905063010 85 186 6.0 7.0 0.00 0.03 0.00 62 1014.0
20260905062510 85 194 5.0 8.0 0.00 0.03 0.00 62 1014.0
20260905061009 85 195 8.0 11.0 0.00 0.03 0.00 60 1013.9
20260905060009 86 170 8.0 11.0 0.00 0.03 0.00 60 1013.7
20260905055509 86 191 7.0 10.0 0.00 0.03 0.00 60 1013.7
20260905055009 86 184 7.0 10.0 0.00 0.03 0.00 60 1013.7
20260905054509 86 204 9.0 10.0 0.00 0.03 0.00 60 1013.7
20260905054010 86 194 7.0 10.0 0.00 0.03 0.00 60 1013.7
20260905053509 86 189 8.0 9.0 0.00 0.03 0.00 60 1013.7
20260905053009 86 190 7.0 9.0 0.00 0.03 0.00 60 1013.7
20260905052509 86 197 7.0 9.0 0.00 0.03 0.00 59 1013.7
20260905052009 86 178 5.0 9.0 0.00 0.03 0.00 59 1013.6
20260905051509 86 177 7.0 9.0 0.00 0.03 0.00 59 1013.5
20260905051010 86 181 7.0 8.0 0.00 0.03 0.00 58 1013.5
20260905050508 86 189 6.0 8.0 0.00 0.03 0.00 58 1013.6
20260905050008 86 180 7.0 9.0 0.00 0.03 0.00 57 1013.5
20260905045008 87 164 7.0 12.0 0.00 0.03 0.03 56 1013.5
20260905044509 87 160 9.0 12.0 0.00 0.03 0.03 56 1013.5
20260905044008 87 162 10.0 11.0 0.00 0.03 0.03 55 1013.5
20260905043509 87 163 10.0 11.0 0.00 0.03 0.03 55 1013.5
20260905043008 87 159 10.0 12.0 0.00 0.03 0.03 54 1013.5